FW9002 Weather Reports


time (UTC)temp
C
wind
direction
speed
KPH
gust
KPH
rain 1hr
cm
rain 24hr
cm
rain mn
cm
humidity
%
barometer
mb
20260508041527 22 95 0.0 0.0 0.00 0.00 0.00 26 1012.4
20260508041024 23 97 1.6 1.6 0.00 0.00 0.00 26 1012.5
20260508040521 23 105 0.0 0.0 0.00 0.00 0.00 25 1012.5
20260508040018 23 105 0.0 0.0 0.00 0.00 0.00 25 1012.6
20260508035515 23 105 0.0 0.0 0.00 0.00 0.00 25 1012.4
20260508035012 23 105 1.6 1.6 0.00 0.00 0.00 25 1012.1
20260508034509 23 101 3.2 3.2 0.00 0.00 0.00 24 1012.0
20260508034006 23 54 0.0 0.0 0.00 0.00 0.00 23 1011.8
20260508033504 24 45 0.0 0.0 0.00 0.00 0.00 23 1011.8
20260508033001 25 45 0.0 0.0 0.00 0.00 0.00 22 1011.8
20260508032458 25 25 1.6 1.6 0.00 0.00 0.00 21 1011.6
20260508031955 25 294 1.6 1.6 0.00 0.00 0.00 21 1011.5
20260508031453 25 283 0.0 0.0 0.00 0.00 0.00 20 1011.3
20260508030948 25 278 0.0 0.0 0.00 0.00 0.00 20 1011.3
20260508030445 26 301 1.6 1.6 0.00 0.00 0.00 20 1011.2
20260508025943 26 258 3.2 4.8 0.00 0.00 0.00 19 1011.0
20260508025439 26 237 4.8 8.0 0.00 0.00 0.00 19 1010.9
20260508024936 26 264 8.0 9.7 0.00 0.00 0.00 19 1010.7
20260508024432 26 215 12.9 14.5 0.00 0.00 0.00 19 1010.6
20260508023929 26 258 17.7 20.9 0.00 0.00 0.00 19 1010.7
20260508023426 26 241 6.4 8.0 0.00 0.00 0.00 19 1010.3
20260508022923 27 258 11.3 17.7 0.00 0.00 0.00 18 1010.5
20260508022419 27 225 9.7 12.9 0.00 0.00 0.00 18 1010.3
20260508021916 27 285 11.3 12.9 0.00 0.00 0.00 18 1010.4
20260508021412 28 263 14.5 24.1 0.00 0.00 0.00 17 1010.3
20260508020908 28 261 8.0 11.3 0.00 0.00 0.00 14 1010.1
20260508020406 28 310 6.4 8.0 0.00 0.00 0.00 13 1010.3
20260508015903 29 315 8.0 9.7 0.00 0.00 0.00 13 1010.0
20260508015401 29 335 8.0 9.7 0.00 0.00 0.00 13 1009.9
20260508014856 30 317 6.4 9.7 0.00 0.00 0.00 13 1009.3
20260508014354 30 261 4.8 8.0 0.00 0.00 0.00 12 1009.3
20260508013849 30 358 6.4 8.0 0.00 0.00 0.00 12 1009.5
20260508013346 30 316 1.6 1.6 0.00 0.00 0.00 13 1009.2
20260508012843 30 308 3.2 4.8 0.00 0.00 0.00 13 1009.0
20260508012340 31 305 11.3 16.1 0.00 0.00 0.00 12 1009.3
20260508011838 31 300 4.8 8.0 0.00 0.00 0.00 13 1009.2
20260508011336 31 299 6.4 8.0 0.00 0.00 0.00 12 1008.8
20260508010833 31 323 6.4 11.3 0.00 0.00 0.00 12 1008.9
20260508010330 31 313 8.0 9.7 0.00 0.00 0.00 12 1008.9
20260508005827 31 272 4.8 9.7 0.00 0.00 0.00 12 1008.9
20260508005324 31 337 9.7 12.9 0.00 0.00 0.00 12 1008.9
20260508004820 31 309 4.8 4.8 0.00 0.00 0.00 13 1009.0
20260508004316 32 341 8.0 11.3 0.00 0.00 0.00 12 1008.9
20260508003813 31 290 4.8 4.8 0.00 0.00 0.00 13 1008.7
20260508003310 32 281 4.8 8.0 0.00 0.00 0.00 13 1008.6
20260508002807 32 4 3.2 4.8 0.00 0.00 0.00 13 1008.9
20260508002306 31 306 3.2 3.2 0.00 0.00 0.00 13 1008.8
20260508001800 32 323 9.7 16.1 0.00 0.00 0.00 12 1008.7
20260508001255 32 2 1.6 1.6 0.00 0.00 0.00 13 1008.7
20260508000752 32 292 8.0 11.3 0.00 0.00 0.00 12 1008.6
20260508000250 32 304 3.2 3.2 0.00 0.00 0.00 12 1008.5
20260507235745 31 302 6.4 11.3 0.00 0.00 0.00 13 1008.7
20260507235243 32 58 1.6 1.6 0.00 0.00 0.00 13 1008.7
20260507234740 32 4 3.2 3.2 0.00 0.00 0.00 12 1008.6
20260507234237 32 260 4.8 4.8 0.00 0.00 0.00 12 1008.8
20260507233733 33 14 1.6 1.6 0.00 0.00 0.00 12 1008.8
20260507233231 33 299 3.2 3.2 0.00 0.00 0.00 11 1008.7
20260507232728 33 301 3.2 4.8 0.00 0.00 0.00 12 1008.7
20260507232225 32 353 3.2 4.8 0.00 0.00 0.00 12 1008.7
20260507231721 32 329 4.8 4.8 0.00 0.00 0.00 13 1008.7
20260507231218 32 17 3.2 1.6 0.00 0.00 0.00 13 1008.8
20260507230715 32 50 1.6 1.6 0.00 0.00 0.00 13 1008.8
20260507230213 32 11 4.8 8.0 0.00 0.00 0.00 13 1008.8
20260507225711 32 314 3.2 3.2 0.00 0.00 0.00 13 1008.8
20260507225209 32 354 9.7 12.9 0.00 0.00 0.00 13 1009.0
20260507224705 32 14 3.2 3.2 0.00 0.00 0.00 12 1008.9
20260507224201 32 5 1.6 1.6 0.00 0.00 0.00 12 1008.9
20260507223657 32 274 1.6 1.6 0.00 0.00 0.00 12 1008.9
20260507223154 32 328 6.4 9.7 0.00 0.00 0.00 12 1008.9
20260507222651 32 263 8.0 9.7 0.00 0.00 0.00 12 1009.0
20260507222147 32 278 3.2 4.8 0.00 0.00 0.00 12 1008.8
20260507221644 33 272 3.2 3.2 0.00 0.00 0.00 12 1009.2
20260507221140 33 351 1.6 1.6 0.00 0.00 0.00 11 1009.3
20260507220637 33 287 1.6 1.6 0.00 0.00 0.00 11 1009.5
20260507220136 33 315 3.2 3.2 0.00 0.00 0.00 12 1009.1
20260507215631 32 1 1.6 1.6 0.00 0.00 0.00 11 1009.3
20260507215129 31 292 3.2 3.2 0.00 0.00 0.00 11 1009.7
20260507214626 30 81 3.2 3.2 0.00 0.00 0.00 12 1009.8
20260507214122 31 20 0.0 0.0 0.00 0.00 0.00 13 1009.8
20260507213618 31 317 3.2 3.2 0.00 0.00 0.00 13 1009.8
20260507213116 31 17 4.8 8.0 0.00 0.00 0.00 12 1009.9
20260507212612 30 39 1.6 1.6 0.00 0.00 0.00 14 1009.9
20260507212109 30 298 4.8 4.8 0.00 0.00 0.00 13 1009.9
20260507211605 31 213 6.4 8.0 0.00 0.00 0.00 12 1010.1
20260507211101 31 170 1.6 3.2 0.00 0.00 0.00 12 1010.3
20260507210559 31 4 1.6 1.6 0.00 0.00 0.00 13 1010.1
20260507210055 32 299 4.8 4.8 0.00 0.00 0.00 12 1010.4
20260507205552 32 255 3.2 4.8 0.00 0.00 0.00 11 1010.1
20260507205048 32 42 1.6 1.6 0.00 0.00 0.00 12 1010.4
20260507204545 32 326 1.6 1.6 0.00 0.00 0.00 12 1010.4
20260507204042 32 297 6.4 8.0 0.00 0.00 0.00 12 1010.4
20260507203540 32 300 4.8 4.8 0.00 0.00 0.00 12 1010.4
20260507203037 31 303 0.0 0.0 0.00 0.00 0.00 13 1010.6
20260507202533 30 35 1.6 1.6 0.00 0.00 0.00 13 1010.7
20260507202029 30 10 1.6 3.2 0.00 0.00 0.00 14 1010.6
20260507201525 30 341 3.2 3.2 0.00 0.00 0.00 13 1011.0
20260507201021 30 37 1.6 1.6 0.00 0.00 0.00 14 1011.0
20260507200517 30 323 3.2 4.8 0.00 0.00 0.00 14 1010.7
20260507200013 30 305 4.8 9.7 0.00 0.00 0.00 13 1010.9
20260507195511 30 328 0.0 0.0 0.00 0.00 0.00 14 1011.0
20260507195008 31 53 1.6 1.6 0.00 0.00 0.00 13 1010.9
20260507194504 32 308 3.2 4.8 0.00 0.00 0.00 12 1011.0
20260507194000 32 298 3.2 3.2 0.00 0.00 0.00 12 1010.9
20260507193458 31 78 1.6 1.6 0.00 0.00 0.00 13 1011.0
20260507192954 31 293 8.0 11.3 0.00 0.00 0.00 12 1011.3
20260507192450 31 299 4.8 4.8 0.00 0.00 0.00 12 1011.3
20260507191948 31 233 1.6 1.6 0.00 0.00 0.00 12 1011.4
20260507191443 31 160 1.6 1.6 0.00 0.00 0.00 12 1011.4
20260507190940 30 291 3.2 3.2 0.00 0.00 0.00 14 1011.4
20260507190438 30 329 1.6 3.2 0.00 0.00 0.00 14 1011.5
20260507185937 30 294 6.4 8.0 0.00 0.00 0.00 13 1011.5
20260507185433 30 69 3.2 3.2 0.00 0.00 0.00 13 1011.7
20260507184930 30 228 1.6 1.6 0.00 0.00 0.00 12 1011.7
20260507184428 30 282 4.8 4.8 0.00 0.00 0.00 15 1012.0
20260507183926 30 254 6.4 8.0 0.00 0.00 0.00 14 1011.9
20260507183422 30 290 3.2 3.2 0.00 0.00 0.00 15 1011.9
20260507182920 29 86 1.6 1.6 0.00 0.00 0.00 16 1012.2
20260507182415 29 256 4.8 3.2 0.00 0.00 0.00 15 1012.1
20260507181912 28 351 3.2 4.8 0.00 0.00 0.00 16 1012.2
20260507181408 28 13 1.6 3.2 0.00 0.00 0.00 16 1012.6
20260507180905 29 287 3.2 3.2 0.00 0.00 0.00 17 1012.5
20260507180401 28 71 1.6 3.2 0.00 0.00 0.00 16 1012.6
20260507175857 28 63 1.6 1.6 0.00 0.00 0.00 17 1012.6
20260507175354 28 353 4.8 4.8 0.00 0.00 0.00 16 1012.8
20260507174852 28 95 3.2 3.2 0.00 0.00 0.00 17 1012.7
20260507174349 28 100 1.6 1.6 0.00 0.00 0.00 18 1013.0
20260507173847 28 323 0.0 0.0 0.00 0.00 0.00 18 1013.2
20260507173343 28 34 3.2 3.2 0.00 0.00 0.00 20 1013.0
20260507172839 27 269 1.6 1.6 0.00 0.00 0.00 18 1013.0
20260507172336 27 128 3.2 3.2 0.00 0.00 0.00 17 1013.1
20260507171832 26 63 1.6 1.6 0.00 0.00 0.00 19 1013.1
20260507171329 26 239 3.2 3.2 0.00 0.00 0.00 18 1013.1
20260507170826 26 264 3.2 3.2 0.00 0.00 0.00 19 1013.2
20260507170323 27 309 3.2 3.2 0.00 0.00 0.00 19 1013.2
20260507165819 26 3 0.0 1.6 0.00 0.00 0.00 19 1013.2
20260507165315 25 55 1.6 1.6 0.00 0.00 0.00 21 1013.2
20260507164811 25 237 3.2 3.2 0.00 0.00 0.00 20 1013.6
20260507164308 25 210 0.0 0.0 0.00 0.00 0.00 20 1013.5
20260507163805 26 236 4.8 3.2 0.00 0.00 0.00 20 1013.3
20260507163303 26 53 0.0 0.0 0.00 0.00 0.00 22 1013.4
20260507162759 25 79 0.0 0.0 0.00 0.00 0.00 22 1013.3
20260507162255 24 181 1.6 1.6 0.00 0.00 0.00 21 1013.6
20260507161752 25 251 1.6 1.6 0.00 0.00 0.00 21 1013.6
20260507161248 25 233 3.2 3.2 0.00 0.00 0.00 21 1013.6
20260507160744 25 208 1.6 1.6 0.00 0.00 0.00 21 1013.6
20260507160241 23 54 1.6 1.6 0.00 0.00 0.00 22 1013.9
20260507155737 23 74 0.0 1.6 0.00 0.00 0.00 23 1014.0
20260507155233 23 76 0.0 0.0 0.00 0.00 0.00 23 1014.0
20260507154730 23 358 3.2 3.2 0.00 0.00 0.00 24 1013.9
20260507154228 23 53 1.6 1.6 0.00 0.00 0.00 24 1014.0
20260507153724 23 95 0.0 0.0 0.00 0.00 0.00 24 1013.9
20260507153220 23 83 1.6 0.0 0.00 0.00 0.00 25 1014.1
20260507152717 22 80 0.0 0.0 0.00 0.00 0.00 26 1013.9
20260507152213 22 90 0.0 0.0 0.00 0.00 0.00 26 1014.1
20260507151709 22 66 0.0 0.0 0.00 0.00 0.00 25 1014.2
20260507151206 22 88 0.0 0.0 0.00 0.00 0.00 27 1014.1
20260507150703 21 175 0.0 0.0 0.00 0.00 0.00 28 1014.2
20260507150200 21 176 1.6 1.6 0.00 0.00 0.00 28 1014.1
20260507145655 21 68 1.6 1.6 0.00 0.00 0.00 29 1014.1
20260507145152 21 69 0.0 0.0 0.00 0.00 0.00 30 1014.4
20260507144649 20 68 0.0 0.0 0.00 0.00 0.00 31 1014.3
20260507144147 20 55 1.6 1.6 0.00 0.00 0.00 31 1014.2
20260507143644 20 81 1.6 3.2 0.00 0.00 0.00 31 1014.2
20260507143141 20 90 0.0 0.0 0.00 0.00 0.00 33 1014.3
20260507142636 19 96 0.0 0.0 0.00 0.00 0.00 34 1014.3
20260507142133 18 98 0.0 0.0 0.00 0.00 0.00 35 1014.2
20260507141629 18 107 0.0 0.0 0.00 0.00 0.00 35 1014.4
20260507141126 18 99 0.0 0.0 0.00 0.00 0.00 36 1014.5
20260507140623 17 101 1.6 1.6 0.00 0.00 0.00 37 1014.2
20260507140120 17 91 0.0 0.0 0.00 0.00 0.00 41 1014.3
20260507135617 16 91 0.0 0.0 0.00 0.00 0.00 42 1014.2
20260507135115 16 91 0.0 0.0 0.00 0.00 0.00 44 1014.6
20260507134611 15 90 0.0 0.0 0.00 0.00 0.00 46 1014.3
20260507134107 15 75 0.0 0.0 0.00 0.00 0.00 48 1014.3
20260507133603 15 70 1.6 1.6 0.00 0.00 0.00 50 1014.1
20260507133101 15 72 0.0 0.0 0.00 0.00 0.00 52 1014.3
20260507132557 14 72 0.0 0.0 0.00 0.00 0.00 50 1014.2
20260507132054 14 76 1.6 1.6 0.00 0.00 0.00 50 1014.1
20260507131551 13 129 0.0 0.0 0.00 0.00 0.00 49 1014.1
20260507131048 13 130 0.0 0.0 0.00 0.00 0.00 50 1014.0
20260507130545 12 136 0.0 0.0 0.00 0.00 0.00 51 1013.9
20260507130043 11 155 0.0 0.0 0.00 0.00 0.00 55 1013.9
20260507125541 11 158 0.0 0.0 0.00 0.00 0.00 58 1013.9
20260507125038 11 91 0.0 0.0 0.00 0.00 0.00 58 1013.8
20260507124534 11 91 0.0 0.0 0.00 0.00 0.00 56 1014.0
20260507124032 11 91 0.0 0.0 0.00 0.00 0.00 57 1013.8
20260507123530 11 92 0.0 0.0 0.00 0.00 0.00 57 1014.0
20260507123027 11 92 0.0 0.0 0.00 0.00 0.00 55 1013.8
20260507122522 11 92 0.0 0.0 0.00 0.00 0.00 55 1013.5
20260507122018 11 92 0.0 0.0 0.00 0.00 0.00 57 1013.9
20260507121514 10 92 0.0 0.0 0.00 0.00 0.00 60 1013.6
20260507121010 10 91 0.0 0.0 0.00 0.00 0.00 58 1014.0
20260507120506 10 91 0.0 0.0 0.00 0.00 0.00 58 1013.8
20260507120004 10 91 0.0 0.0 0.00 0.00 0.00 58 1013.6
20260507115459 10 91 0.0 0.0 0.00 0.00 0.00 57 1013.9
20260507114955 11 91 0.0 0.0 0.00 0.00 0.00 55 1013.9
20260507114452 11 91 0.0 0.0 0.00 0.00 0.00 56 1013.9
20260507113949 11 91 0.0 0.0 0.00 0.00 0.00 53 1013.8
20260507113446 11 91 0.0 0.0 0.00 0.00 0.00 53 1013.8
20260507112943 12 94 0.0 0.0 0.00 0.00 0.00 55 1013.8
20260507112441 12 94 0.0 0.0 0.00 0.00 0.00 53 1013.9
20260507111937 12 96 0.0 0.0 0.00 0.00 0.00 51 1013.9
20260507111435 12 96 0.0 0.0 0.00 0.00 0.00 50 1013.9
20260507110931 13 104 1.6 1.6 0.00 0.00 0.00 48 1014.0
20260507110427 13 105 0.0 0.0 0.00 0.00 0.00 46 1013.8
20260507105924 13 106 0.0 0.0 0.00 0.00 0.00 45 1013.9
20260507105421 13 106 0.0 0.0 0.00 0.00 0.00 43 1013.9
20260507104918 14 108 0.0 0.0 0.00 0.00 0.00 42 1013.6
20260507104415 14 108 0.0 0.0 0.00 0.00 0.00 41 1013.6
20260507103910 14 106 1.6 1.6 0.00 0.00 0.00 41 1013.5
20260507103407 14 129 1.6 1.6 0.00 0.00 0.00 41 1013.6
20260507102903 13 122 1.6 1.6 0.00 0.00 0.00 45 1013.6
20260507102400 12 98 0.0 0.0 0.00 0.00 0.00 50 1013.5
20260507101856 12 93 0.0 0.0 0.00 0.00 0.00 55 1013.8
20260507101356 12 93 0.0 0.0 0.00 0.00 0.00 55 1013.4
20260507100854 12 93 0.0 0.0 0.00 0.00 0.00 55 1014.0
20260507100351 12 93 0.0 0.0 0.00 0.00 0.00 54 1013.8
20260507095849 12 93 0.0 0.0 0.00 0.00 0.00 53 1013.6
20260507095345 12 93 0.0 0.0 0.00 0.00 0.00 53 1014.0
20260507094843 13 93 0.0 0.0 0.00 0.00 0.00 52 1014.0
20260507094339 13 93 1.6 0.0 0.00 0.00 0.00 51 1013.8
20260507093837 13 84 0.0 0.0 0.00 0.00 0.00 52 1013.8
20260507093335 13 84 0.0 0.0 0.00 0.00 0.00 51 1013.8
20260507092833 13 84 0.0 0.0 0.00 0.00 0.00 51 1013.9
20260507092329 13 84 0.0 0.0 0.00 0.00 0.00 51 1014.0
20260507091825 13 84 0.0 0.0 0.00 0.00 0.00 49 1014.0
20260507091322 13 84 0.0 0.0 0.00 0.00 0.00 50 1014.0
20260507090817 13 84 0.0 0.0 0.00 0.00 0.00 51 1014.1
20260507090314 13 84 0.0 0.0 0.00 0.00 0.00 48 1014.0
20260507085811 13 84 0.0 0.0 0.00 0.00 0.00 47 1014.1
20260507085308 14 84 0.0 0.0 0.00 0.00 0.00 46 1014.3
20260507084805 13 85 0.0 0.0 0.00 0.00 0.00 46 1014.2
20260507084301 13 86 0.0 0.0 0.00 0.00 0.00 49 1014.1
20260507083759 13 87 0.0 0.0 0.00 0.00 0.00 51 1013.9
20260507083255 13 87 0.0 0.0 0.00 0.00 0.00 51 1014.3
20260507082751 13 87 0.0 0.0 0.00 0.00 0.00 51 1014.0
20260507082247 13 87 0.0 0.0 0.00 0.00 0.00 51 1014.0
20260507081744 13 87 0.0 0.0 0.00 0.00 0.00 52 1014.1
20260507081240 13 87 0.0 0.0 0.00 0.00 0.00 51 1014.1
20260507080737 14 87 0.0 0.0 0.00 0.00 0.00 50 1014.1
20260507080233 14 87 0.0 0.0 0.00 0.00 0.00 51 1014.2
20260507075729 14 87 0.0 0.0 0.00 0.00 0.00 49 1014.2
20260507075225 14 87 0.0 0.0 0.00 0.00 0.00 50 1014.0
20260507074721 15 87 0.0 0.0 0.00 0.00 0.00 50 1014.0
20260507074220 15 87 0.0 0.0 0.00 0.00 0.00 49 1014.1
20260507073716 15 87 0.0 0.0 0.00 0.00 0.00 49 1014.0
20260507073213 15 87 0.0 0.0 0.00 0.00 0.00 49 1013.9
20260507072711 15 87 0.0 0.0 0.00 0.00 0.00 50 1014.0
20260507072208 15 87 0.0 0.0 0.00 0.00 0.00 49 1014.0
20260507071705 15 87 0.0 0.0 0.00 0.00 0.00 49 1014.1
20260507071201 15 87 0.0 0.0 0.00 0.00 0.00 47 1014.0
20260507070659 15 87 0.0 0.0 0.00 0.00 0.00 47 1014.1
20260507070155 15 87 0.0 0.0 0.00 0.00 0.00 47 1014.1
20260507065651 15 87 0.0 0.0 0.00 0.00 0.00 46 1014.2
20260507065149 15 87 0.0 0.0 0.00 0.00 0.00 45 1014.2
20260507064646 15 86 0.0 0.0 0.00 0.00 0.00 45 1014.2
20260507064144 15 86 1.6 1.6 0.00 0.00 0.00 46 1014.1
20260507063642 15 56 0.0 0.0 0.00 0.00 0.00 45 1014.0
20260507063138 15 345 0.0 0.0 0.00 0.00 0.00 45 1013.6
20260507062635 15 345 0.0 0.0 0.00 0.00 0.00 45 1014.1
20260507062133 16 345 0.0 0.0 0.00 0.00 0.00 44 1014.1
20260507061631 16 345 0.0 0.0 0.00 0.00 0.00 42 1014.0
20260507061128 16 345 0.0 0.0 0.00 0.00 0.00 42 1013.9
20260507060626 16 345 0.0 0.0 0.00 0.00 0.00 42 1014.0
20260507060122 16 345 0.0 0.0 0.00 0.00 0.00 42 1013.9
20260507055618 15 345 1.6 1.6 0.00 0.00 0.00 42 1013.8
20260507055114 15 345 0.0 0.0 0.00 0.00 0.00 43 1013.6
20260507054610 15 345 0.0 0.0 0.00 0.00 0.00 43 1013.9
20260507054107 15 345 0.0 0.0 0.00 0.00 0.00 42 1014.0
20260507053605 15 345 0.0 0.0 0.00 0.00 0.00 40 1013.8
20260507053104 15 345 0.0 0.0 0.00 0.00 0.00 42 1013.6
20260507052601 15 345 0.0 0.0 0.00 0.00 0.00 38 1013.8
20260507052058 16 345 0.0 0.0 0.00 0.00 0.00 40 1013.6
20260507051555 16 345 0.0 0.0 0.00 0.00 0.00 37 1013.6
20260507051052 16 345 0.0 0.0 0.00 0.00 0.00 36 1013.8
20260507050549 16 345 0.0 0.0 0.00 0.00 0.00 34 1013.6
20260507050045 17 345 0.0 0.0 0.00 0.00 0.00 34 1013.5
20260507045542 17 345 0.0 0.0 0.00 0.00 0.00 33 1013.2
20260507045039 18 345 0.0 0.0 0.00 0.00 0.00 32 1013.3
20260507044535 18 345 0.0 0.0 0.00 0.00 0.00 30 1013.6
20260507044033 18 345 0.0 0.0 0.00 0.00 0.00 30 1013.5
20260507043528 18 345 0.0 0.0 0.00 0.00 0.00 27 1013.3
20260507043026 19 345 0.0 0.0 0.00 0.00 0.00 27 1013.3
20260507042522 20 345 0.0 0.0 0.00 0.00 0.00 26 1013.3
20260507042017 20 345 0.0 0.0 0.00 0.00 0.00 25 1013.4